OPS 4682 DEB, 19593

Orbit data source: Space-Track

OPS 4682 DEB, 19593 is space debris in LEO originally from a launch on Sat, 03 Apr 1965 UTC launched from the Air Force Western Test Range (AFWTR). Debris objects in space refer to the collection of defunct objects orbiting the Earth. Examples of debris include non-operational satellites, rocket bodies, and fragments generated from explosions, collisions, or faulty payload assembly.

Loading next visibility...
Identifier
19593, 1965-027AW
Orbit
LEO
Country
Flag of USUS
Related business
Manufacturer
Unknown
Mission
Spacecraft
Bus & Motor
Unknown
Mass
Unknown
Launch date (UTC)
1965-04-03 (61 years ago)
Launch vehicle
Unknown
Launch site
Air Force Western Test Range (AFWTR)
Object type
Payload
Rocket body
Debris
Shape & HBR
Unknown shape, 0.1 m
Radar Cross Section
Small (<0.1 m²)

Expand to show TLE details & history
Last TLE update: 13 hours ago

TLE from 13 hours ago
0 OPS 4682 DEB
1 19593U 65027AW  26104.48514149 -.00000314  00000-0 -11331-2 0  9997
2 19593  90.2467   5.1969 0027528 288.1925 254.2142 12.95796014793863
Epoch: 2026-04-14T11:38Z
TLE epoch observation values (Epoch: 2026-04-14T11:38:36.224Z)
Latitude
-2.22803°
Longitude
167.8757°
Altitude
1,287.586 km
Speed
7.209 km/s
True Right ascension
12h 20m 44s
True Declination
-2° 12' 56"
Sunlit
Object was in full shadow at epoch
Visualization orbit readout
Latitude
Unknown
Longitude
Unknown
Altitude
Unknown
Speed
Unknown
Apparent Right ascension
Unknown
Apparent Declination
Unknown
Sunlit
N/A
Visualization observer readout
Local Sidereal Time
07:25:43
Azimuth
Unknown
Elevation
Unknown
Doppler factor
Unknown
Orbital elements
Apogee altitude
1,296.805 km
Perigee altitude
1,254.666 km
Semi-major axis
7,653.873 km
Eccentricity
0.00275
Inclination
90.2467°
RAAN
5.1969°
Arg. of periapsis
288.1925°
True anomaly
253.91093°
Mean anomaly
254.2142°
Eccentric anomaly
254.06254°
Mean motion
3.24132 °/min
Orbital period
111.07 mins
BSTAR
-0.0011331
Loading maneuver chart data...
Computing Atmospheric mass density...
Loading historical data...
Loading historical data...
Loading historical data...
Loading historical data...
Loading historical data...
Loading historical data...
Loading historical data...

Documentation

Showing up to 5 results
|